FW6634 Weather Reports


time (UTC)temp
F
wind
direction
speed
knots
gust
knots
rain 1hr
in
rain 24hr
in
rain mn
in
humidity
%
barometer
mb
20260508010601 51 149 0.0 0.0 0.00 0.16 0.14 98 1012.8
20260508010002 51 149 0.0 0.0 0.00 0.16 0.14 98 1012.9
20260508005102 51 149 0.0 0.0 0.00 0.16 0.14 97 1012.8
20260508004501 51 149 0.0 0.0 0.00 0.16 0.14 97 1012.8
20260508003601 52 149 0.0 0.0 0.00 0.16 0.14 96 1012.8
20260508003001 52 149 0.0 0.0 0.00 0.16 0.14 96 1012.8
20260508002101 52 149 0.0 0.0 0.00 0.16 0.14 96 1012.7
20260508001500 53 149 0.0 0.0 0.00 0.16 0.14 95 1012.5
20260508000601 54 149 0.0 0.0 0.00 0.16 0.14 95 1012.4
20260508000003 54 149 0.0 0.0 0.00 0.16 0.14 94 1012.4
20260507235700 54 149 0.0 0.0 0.00 0.16 0.14 94 1012.4
20260507235108 55 149 0.0 0.0 0.00 0.16 0.14 94 1012.3
20260507234502 55 149 0.0 0.0 0.00 0.16 0.14 93 1012.2
20260507233601 56 149 0.0 0.0 0.00 0.16 0.14 92 1012.2
20260507233004 56 149 0.0 1.7 0.00 0.16 0.14 92 1012.0
20260507232100 57 156 0.0 0.9 0.00 0.16 0.14 94 1012.0
20260507231501 56 141 0.0 0.9 0.00 0.16 0.14 96 1011.9
20260507230601 55 136 0.0 0.9 0.00 0.16 0.14 95 1011.9
20260507230006 55 132 0.0 0.9 0.00 0.16 0.14 94 1011.9
20260507225101 55 129 0.0 0.9 0.00 0.16 0.14 95 1012.0
20260507224504 55 129 0.0 0.9 0.00 0.16 0.14 94 1011.9
20260507223601 55 129 0.0 0.0 0.00 0.16 0.14 93 1011.9
20260507223001 55 128 0.0 0.0 0.00 0.16 0.14 92 1012.1
20260507222100 56 129 0.0 0.9 0.00 0.16 0.14 92 1012.0
20260507221501 56 129 0.0 0.9 0.00 0.16 0.14 93 1012.0
20260507220601 56 122 0.0 0.9 0.00 0.16 0.14 92 1011.9
20260507220004 56 122 0.0 0.9 0.00 0.16 0.14 93 1011.9
20260507215101 55 207 0.0 0.9 0.00 0.16 0.14 92 1011.8
20260507214501 56 95 0.0 3.5 0.00 0.16 0.14 91 1011.6
20260507213601 56 86 0.0 0.9 0.00 0.16 0.14 91 1011.3
20260507213001 56 95 0.0 0.9 0.00 0.16 0.14 91 1011.5
20260507212103 56 162 0.0 1.7 0.01 0.16 0.14 92 1011.5
20260507211501 56 86 0.0 1.7 0.01 0.16 0.14 91 1011.6
20260507210602 56 54 0.0 1.7 0.01 0.16 0.14 91 1011.6
20260507210004 56 130 0.0 1.7 0.02 0.16 0.14 93 1011.5
20260507205102 55 176 0.9 2.6 0.03 0.16 0.14 92 1011.6
20260507204500 55 38 0.0 2.6 0.03 0.16 0.14 93 1011.7
20260507203604 55 36 0.0 1.7 0.03 0.16 0.14 94 1011.7
20260507203005 54 28 0.0 1.7 0.03 0.16 0.14 94 1011.6
20260507202100 54 72 0.0 1.7 0.02 0.15 0.13 93 1012.1
20260507201502 54 6 0.0 1.7 0.04 0.15 0.13 93 1012.3
20260507200600 54 129 0.0 2.6 0.03 0.14 0.12 93 1011.9
20260507200004 54 339 0.0 4.3 0.03 0.14 0.12 92 1012.2
20260507195101 54 73 1.7 4.3 0.02 0.13 0.11 93 1012.0
20260507194502 54 21 1.7 5.2 0.02 0.13 0.11 93 1012.1
20260507194200 54 26 0.9 5.2 0.02 0.13 0.11 92 1012.1
20260507193601 54 22 0.9 5.2 0.02 0.13 0.11 92 1012.3
20260507193001 54 21 1.7 5.2 0.03 0.13 0.11 91 1012.4
20260507192103 55 123 0.0 5.2 0.03 0.13 0.11 93 1012.1
20260507191503 54 57 1.7 5.2 0.01 0.11 0.09 92 1012.2
20260507190601 54 51 1.7 6.1 0.01 0.11 0.09 92 1012.3
20260507190003 54 52 2.6 6.1 0.01 0.11 0.09 92 1012.3
20260507185702 55 63 2.6 6.1 0.01 0.11 0.09 92 1012.2
20260507185100 55 66 0.9 7.0 0.01 0.11 0.09 93 1012.3
20260507184200 55 28 3.5 6.1 0.01 0.11 0.09 90 1012.4
20260507183559 55 6 1.7 5.2 0.00 0.10 0.08 87 1012.4
20260507182701 56 12 2.6 6.1 0.00 0.10 0.08 86 1012.2
20260507182100 56 34 2.6 6.1 0.00 0.10 0.08 86 1012.2
20260507181200 56 49 1.7 7.0 0.00 0.10 0.08 86 1012.2
20260507180603 56 45 2.6 7.0 0.00 0.10 0.08 85 1012.2
20260507180002 56 60 2.6 10.4 0.00 0.10 0.08 84 1012.1
20260507175700 56 1 3.5 10.4 0.00 0.11 0.08 84 1012.1
20260507175100 57 4 2.6 8.7 0.00 0.11 0.08 83 1012.0
20260507174501 57 68 0.9 4.3 0.00 0.11 0.08 84 1012.0
20260507174200 56 92 1.7 7.0 0.00 0.11 0.08 85 1012.0
20260507173600 56 77 2.6 7.0 0.00 0.11 0.08 85 1012.1
20260507172700 55 90 1.7 6.1 0.00 0.11 0.08 85 1012.2
20260507172100 56 64 0.9 7.0 0.00 0.11 0.08 86 1012.2
20260507171200 55 13 3.5 12.2 0.00 0.11 0.08 85 1012.2
20260507170600 56 354 4.3 12.2 0.00 0.11 0.08 84 1012.5
20260507170004 56 198 1.7 7.0 0.00 0.11 0.08 84 1012.7
20260507165702 56 43 1.7 13.0 0.00 0.11 0.08 85 1012.6
20260507165101 56 30 3.5 13.0 0.00 0.11 0.08 86 1012.7
20260507164200 55 360 3.5 7.8 0.00 0.11 0.08 86 1012.6
20260507163600 56 23 1.7 9.6 0.00 0.11 0.08 87 1012.7
20260507162700 56 349 0.9 7.0 0.00 0.11 0.08 87 1012.8
20260507162101 56 56 2.6 7.0 0.00 0.11 0.08 87 1012.6
20260507161200 56 35 1.7 9.6 0.00 0.11 0.08 88 1012.9
20260507160600 56 338 1.7 5.2 0.00 0.11 0.08 90 1013.0
20260507160002 56 40 0.9 5.2 0.00 0.11 0.08 89 1013.2
20260507155659 56 69 1.7 6.1 0.00 0.15 0.08 88 1013.2
20260507155100 56 16 2.6 6.1 0.00 0.15 0.08 88 1013.0
20260507153601 56 38 2.6 7.8 0.00 0.15 0.08 88 1012.5
20260507152700 56 46 4.3 10.4 0.00 0.15 0.08 87 1012.6
20260507152100 56 319 3.5 8.7 0.00 0.15 0.08 88 1012.7
20260507151159 56 71 4.3 9.6 0.00 0.15 0.08 89 1012.6
20260507150600 56 52 4.3 9.6 0.00 0.15 0.08 88 1012.5
20260507150002 56 41 4.3 10.4 0.00 0.15 0.08 89 1012.4
20260507145059 56 33 3.5 9.6 0.00 0.24 0.08 91 1012.4
20260507143601 55 308 3.5 8.7 0.00 0.24 0.08 92 1012.3
20260507142700 55 36 2.6 9.6 0.00 0.24 0.08 93 1012.2
20260507142059 55 51 2.6 7.0 0.00 0.24 0.08 94 1012.7
20260507141200 55 26 2.6 6.1 0.00 0.24 0.08 95 1012.6
20260507140603 55 26 2.6 7.0 0.00 0.24 0.08 94 1012.6
20260507140001 55 20 2.6 7.0 0.00 0.24 0.08 94 1012.2
20260507135659 55 58 3.5 6.1 0.00 0.25 0.08 94 1012.7
20260507135100 55 348 3.5 7.0 0.00 0.25 0.08 94 1012.6
20260507134200 55 37 1.7 7.8 0.00 0.25 0.08 96 1012.8
20260507133601 55 37 2.6 9.6 0.00 0.25 0.08 95 1012.7
20260507132701 55 321 1.7 6.1 0.00 0.25 0.08 95 1012.9
20260507132059 55 79 0.9 5.2 0.00 0.25 0.08 96 1012.9
20260507131201 55 116 1.7 7.8 0.00 0.25 0.08 95 1013.1
20260507130559 55 110 0.9 7.8 0.00 0.25 0.08 95 1012.9
20260507130002 55 64 4.3 10.4 0.00 0.25 0.08 95 1013.1
20260507125659 56 324 2.6 10.4 0.00 0.25 0.08 95 1012.8
20260507125101 56 49 2.6 7.8 0.00 0.25 0.08 96 1012.6
20260507124201 56 71 3.5 11.3 0.02 0.25 0.08 95 1012.1
20260507123600 57 80 4.3 10.4 0.02 0.25 0.08 96 1012.0
20260507122700 60 57 2.6 8.7 0.02 0.25 0.08 98 1012.1
20260507122059 61 94 2.6 12.2 0.02 0.25 0.08 99 1011.9
20260507121203 63 60 2.6 7.0 0.02 0.25 0.08 100 1011.8
20260507120604 64 2 0.0 2.6 0.02 0.25 0.08 100 1011.8
20260507120005 64 39 0.0 2.6 0.02 0.25 0.08 100 1011.7
20260507115701 64 23 0.0 1.7 0.02 0.25 0.08 100 1011.4
20260507115059 64 350 0.0 0.9 0.01 0.24 0.07 100 1011.7
20260507114159 64 68 0.0 0.9 0.00 0.23 0.06 100 1011.5
20260507113600 63 67 0.0 0.9 0.00 0.23 0.06 100 1011.8
20260507112659 63 77 0.0 0.9 0.00 0.23 0.06 100 1011.7
20260507112101 63 161 0.0 0.0 0.00 0.23 0.06 100 1011.7
20260507111201 63 161 0.0 0.0 0.00 0.23 0.06 100 1011.6
20260507110559 63 161 0.0 0.0 0.00 0.23 0.06 100 1011.6
20260507110002 63 161 0.0 0.0 0.00 0.23 0.06 100 1011.5
20260507105700 63 161 0.0 0.0 0.00 0.23 0.06 100 1011.4
20260507105101 63 161 0.0 0.0 0.00 0.23 0.06 100 1011.3
20260507104200 63 160 0.0 0.0 0.00 0.23 0.06 100 1011.1
20260507103601 63 160 0.0 0.0 0.00 0.23 0.06 100 1011.1
20260507102701 63 160 0.0 0.0 0.01 0.23 0.06 100 1011.1
20260507102059 63 160 0.0 0.0 0.01 0.23 0.06 100 1011.1
20260507101201 63 160 0.0 0.0 0.01 0.23 0.06 100 1010.9
20260507100559 63 161 0.0 0.0 0.01 0.23 0.06 100 1011.2
20260507100003 63 161 0.0 0.0 0.01 0.23 0.06 100 1010.8
20260507095700 63 160 0.0 0.0 0.01 0.23 0.06 100 1010.8
20260507095103 64 160 0.0 0.0 0.01 0.23 0.06 100 1010.6
20260507094159 64 160 0.0 0.9 0.01 0.23 0.06 100 1010.9
20260507093559 64 160 0.0 0.9 0.01 0.23 0.06 100 1011.0
20260507092700 64 276 0.0 0.9 0.00 0.22 0.05 100 1011.2
20260507092059 64 276 0.0 0.9 0.00 0.22 0.05 100 1011.3
20260507091200 64 276 0.0 0.9 0.00 0.22 0.05 100 1011.1
20260507090559 64 274 0.0 0.0 0.00 0.22 0.05 100 1011.0
20260507090006 64 274 0.0 0.0 0.00 0.22 0.05 100 1011.0
20260507085700 64 274 0.0 0.0 0.00 0.22 0.05 100 1011.4
20260507085059 64 274 0.0 0.0 0.00 0.22 0.05 100 1011.7
20260507084159 64 274 0.0 0.0 0.00 0.22 0.05 100 1011.4
20260507083559 64 274 0.0 0.0 0.00 0.22 0.05 100 1011.3
20260507082658 64 274 0.0 0.0 0.00 0.22 0.05 100 1011.4
20260507082103 64 274 0.0 0.9 0.00 0.22 0.05 100 1011.4
20260507081201 64 274 0.0 0.9 0.00 0.22 0.05 100 1011.1
20260507080559 64 269 0.0 0.9 0.00 0.22 0.05 100 1010.9
20260507080006 64 266 0.0 0.9 0.00 0.22 0.05 100 1010.8
20260507075700 64 266 0.0 0.9 0.00 0.22 0.05 100 1010.9
20260507075059 64 243 0.0 3.5 0.00 0.22 0.05 100 1010.7
20260507074158 64 219 0.0 0.0 0.00 0.22 0.05 100 1010.7
20260507073559 64 219 0.0 0.0 0.00 0.22 0.05 100 1010.5
20260507072659 63 219 0.0 0.0 0.00 0.22 0.05 100 1010.6
20260507072101 64 219 0.0 0.0 0.00 0.22 0.05 100 1010.5
20260507071159 64 219 0.0 0.9 0.00 0.22 0.05 100 1010.4
20260507070559 64 37 0.0 0.0 0.00 0.22 0.05 100 1010.6
20260507070003 64 37 0.0 0.0 0.00 0.22 0.05 100 1010.4
20260507065658 64 37 0.0 0.9 0.00 0.22 0.05 100 1010.4
20260507065059 64 1 0.0 0.9 0.00 0.22 0.05 100 1010.8
20260507064159 64 159 0.0 0.9 0.00 0.22 0.05 100 1010.8
20260507063559 64 160 0.0 0.0 0.00 0.22 0.05 100 1011.2
20260507062659 64 155 0.0 0.0 0.00 0.22 0.05 100 1011.3
20260507062100 64 155 0.0 0.0 0.00 0.22 0.05 100 1011.2
20260507061159 64 155 0.0 0.0 0.00 0.22 0.05 99 1011.5
20260507060559 64 155 0.0 0.0 0.00 0.22 0.05 99 1011.7
20260507060002 64 155 0.0 0.9 0.00 0.22 0.05 99 1011.6
20260507055700 64 155 0.0 0.9 0.00 0.22 0.05 99 1011.6
20260507055059 64 133 0.0 0.9 0.00 0.22 0.05 99 1011.6
20260507054200 64 189 0.0 1.7 0.00 0.22 0.05 99 1011.7
20260507053559 64 200 0.0 0.9 0.00 0.22 0.05 99 1011.8
20260507052059 64 155 0.0 0.9 0.02 0.22 0.05 99 1011.6
20260507051159 64 236 0.0 0.0 0.03 0.22 0.05 99 1011.7
20260507050559 65 236 0.0 1.7 0.04 0.22 0.05 98 1011.6
20260507050010 65 121 0.0 1.7 0.05 0.22 0.05 98 1011.4
20260507045101 65 229 0.0 0.9 0.06 0.22 0.05 98 1012.1
20260507044200 65 255 0.0 1.7 0.07 0.22 0.05 98 1012.2
20260507043600 65 321 0.9 1.7 0.07 0.22 0.05 98 1012.2
20260507042703 65 142 0.0 1.7 0.06 0.21 0.04 98 1012.3
20260507042101 65 140 0.0 4.3 0.05 0.20 0.03 97 1012.9
20260507041200 65 157 1.7 7.0 0.04 0.19 0.02 97 1013.1
20260507040601 66 98 0.0 3.5 0.03 0.18 0.01 95 1013.2
20260507040006 66 172 0.9 3.5 0.02 0.17 0.00 94 1013.2
20260507035101 67 262 0.0 4.3 0.01 0.16 0.16 93 1013.5
20260507034500 67 221 0.0 4.3 0.00 0.15 0.15 92 1013.4
20260507033602 67 256 0.0 4.3 0.00 0.15 0.15 91 1013.3
20260507033004 67 271 1.7 4.3 0.00 0.15 0.15 91 1012.9
20260507032103 67 247 1.7 4.3 0.00 0.15 0.15 92 1012.4
20260507031501 66 252 0.0 4.3 0.00 0.15 0.15 93 1012.4
20260507030601 65 196 0.0 2.6 0.00 0.15 0.15 94 1012.2
20260507030003 65 175 0.0 1.7 0.00 0.15 0.15 95 1012.1
20260507025100 65 167 0.0 4.3 0.00 0.15 0.15 95 1012.1
20260507024501 65 122 0.0 0.9 0.00 0.15 0.15 95 1012.3
20260507023601 65 162 0.0 0.9 0.00 0.15 0.15 95 1012.2
20260507023001 65 139 0.0 0.0 0.00 0.15 0.15 94 1012.4
20260507022101 65 139 0.0 0.0 0.00 0.15 0.15 94 1012.1
20260507021502 65 139 0.0 0.9 0.00 0.15 0.15 94 1011.9
20260507020602 66 127 0.0 0.0 0.00 0.15 0.15 93 1012.1
20260507020004 66 127 0.0 0.9 0.00 0.15 0.15 93 1012.2
20260507015700 66 127 0.0 0.9 0.00 0.15 0.15 93 1011.9
20260507015106 66 123 0.0 0.9 0.00 0.15 0.15 93 1011.9
20260507013602 65 129 0.0 0.9 0.00 0.15 0.15 95 1012.1
20260507013001 65 214 0.0 0.0 0.00 0.15 0.15 95 1012.2
20260507012104 65 215 0.0 0.9 0.00 0.15 0.15 95 1012.4
20260507011502 65 215 0.0 0.9 0.00 0.15 0.15 95 1012.3